Powrót do katalogu

WEILI KONGJIAN 05-01

AktywnyNaukaLEO
NORAD 69582·PAYLOAD·🇨🇳 China
Ta nazwa satelity nie została jeszcze potwierdzona przez oficjalne źródła.

Wystrzelony Jun 17, 2026 z Jiuquan Satellite Launch Center

Loading…

Następne Przeloty (najbliższe 24 godziny)

TLE

ŚwieżeSource: Space-Track

Epoka: Sep 14, 2026, 12:59 UTC

1 69582U 26138A   26257.54111185  .00000043  00000-0  11291-3 0  9992
2 69582  55.1411 311.8531 0005798 280.3951  79.6367 14.08054132 12669

Śledź WEILI KONGJIAN 05-01 w czasie rzeczywistym z AllMySat

Download on the App Store